Погода в Сергиевых-Горках

Россия / Владимирская область     55°58′57″N   42°06′16″E
темп.,
°C
ветер,
м/с
пор.,
м/с
влажн.,
%
обл.,
%
осадки,
мм/ч
давл.,
гПа
погр.,
м
15 апреля, чт
чт1500:00+11ю2267100 0.0 101917
03:00+9ююв227398 0.0 101822
06:00+9ююв227660 0.0 101819
09:00+15ююв235255 0.0 1018263
12:00+19юв2237100 0.0 1018780
15:00+21в222898 0.0 10172117
18:00+18св354280 0.0 1017125
21:00+11св61387100 0.0 1020380
16 апреля, пт
пт1600:00+9св61292100 0.0 1021443
03:00+8всв61186100 0.0 1022501
06:00+7всв61185100 0.0 1023566
09:00+9всв6107580 0.0 1023626
12:00+13всв685987 0.0 1024917
15:00+14всв685688 0.0 10241120
18:00+13всв5964100 0.0 1024993
21:00+9всв5117493 0.0 1025451
17 апреля, сб
сб1700:00+7всв5137192 0.0 1026439
03:00+5всв51273100 0.0 1026357
06:00+4всв5137331 0.0 1027399
09:00+8всв610535 0.0 1027628
12:00+12всв794262 0.0 10261052
15:00+14всв68385 0.0 10261362
18:00+12всв59415 0.0 1025760
21:00+7св513560 0.0 1025341
18 апреля, вс
вс1800:00+6всв512630 0.0 1025383
03:00+4св513710 0.0 1025330
06:00+3всв412760 0.0 1026360
09:00+8всв69550 0.0 1025816
12:00+12всв68425 0.0 10261586
15:00+13всв68385 0.0 10252021
18:00+11всв61048100 0.0 1026776
21:00+8св3862100 0.0 1027191
19 апреля, пн
пн1900:00+6всв51273100 0.0 1028557
03:00+4всв51181100 0.0 1028416
06:00+3всв41076100 0.0 1029436
09:00+6всв6853100 0.0 1030719
12:00+9в673928 0.0 10301420
15:00+10в67345 0.0 10291756
18:00+8в574435 0.0 10291553
21:00+4в39604 0.0 1030204